Regional Weather Roundup
Issued by NWS

Home | Current Version | Previous Version | Graphics & Text | Print | Product List | Glossary Off
Versions: 1 2 3 4 5 6 7 8 9 10 11 12 13 14 15 16 17 18 19 20 21 22 23 24 25 26 27 28 29 30 31 32 33 34 35 36 37 38 39 40 41 42 43 44 45 46 47 48 49 50

000
ASUS43 KTOP 011359
RWRKS

WEATHER ROUNDUP FOR KANSAS
NATIONAL WEATHER SERVICE GOODLAND KS
900 AM CDT FRI AUG 01 2014

NOTE:  "FAIR" INDICATES FEW OR NO CLOUDS BELOW 12,000 FEET WITH NO
SIGNIFICANT WEATHER AND/OR OBSTRUCTIONS TO VISIBILITY.

KSZ001>006-013>018-027>032-041>047-011500-
NORTHWEST KANSAS

CITY           SKY/WX    TMP DP  RH WIND       PRES   REMARKS
GOODLAND       MOSUNNY   68  57  68 W9        30.20R
HAYS           SUNNY     72  57  60 N8        30.10R
HILL CITY      SUNNY     74  59  59 N10       30.12R
RUSSELL        SUNNY     71  58  63 N9        30.07R
$$

KSZ061>065-074>080-084>089-011500-
SOUTHWEST KANSAS

CITY           SKY/WX    TMP DP  RH WIND       PRES   REMARKS
DODGE CITY     SUNNY     71  57  61 W12       30.13S
ELKHART          N/A     69  59  70 W5          N/A
GARDEN CITY    SUNNY     68  59  73 NW8       30.16R
GREAT BEND       N/A     70  59  68 W8        30.07S
LIBERAL        SUNNY     70  57  64 W8        30.19R
$$

KSZ066>073-081>083-090>101-011500-
SOUTHEAST KANSAS

CITY           SKY/WX    TMP DP  RH WIND       PRES   REMARKS
CHANUTE        PTSUNNY   67  66  97 CALM      30.10S FOG
COFFEYVILLE    FOG       67  67 100 S3        30.10R VSB 1/2
HUTCHINSON     SUNNY     72  58  61 SW8       30.07R
NEWTON         SUNNY     72  57  60 SW12      30.10S
PARSONS        FOG       68  67  96 CALM      30.11R VSB 1/4
WICHITA INTL   MOSUNNY   72  62  71 SW7       30.07S
WICHITA JABRA  SUNNY     73  62  68 SW8       30.08R
WINFIELD       SUNNY     70  68  93 CALM      30.10S
$$

KSZ007>012-019>026-033>040-048>060-102>105-011500-
NORTHEAST KANSAS

CITY           SKY/WX    TMP DP  RH WIND       PRES   REMARKS
CONCORDIA      SUNNY     69  60  73 NW6       30.05R
EMPORIA        MOSUNNY   68  65  90 S3        30.08S
LAWRENCE       CLOUDY    69  63  81 CALM      30.08R
MANHATTAN      SUNNY     74  60  61 S8        30.04S
OLATHE IND     CLOUDY    70  62  76 CALM      30.10R
OLATHE EXE     CLOUDY    70  62  76 E3        30.09R
SALINA         SUNNY     74  59  59 W8        30.05R
TOPEKA BILLARD PTSUNNY   71  64  78 E5        30.08R
TOPEKA FORBES  CLOUDY    70  61  73 S5        30.07S
$$



USA.gov is the U.S. government's official web portal to all federal, state and local government web resources and services.